| time (UTC) | temp C | wind direction | speed KPH | gust KPH | rain 1hr cm | rain 24hr cm | rain mn cm | humidity % | barometer mb |
| 20260507060024 | 14 | 1 | 0.0 | 3.2 | 0.00 | 0.18 | 0.00 | 76 | 996.0 |
| 20260507054522 | 14 | 360 | 0.0 | 6.4 | 0.00 | 0.18 | 0.00 | 75 | 996.0 |
| 20260507053022 | 14 | 6 | 1.6 | 4.8 | 0.00 | 0.18 | 0.00 | 74 | 995.8 |
| 20260507051519 | 14 | 139 | 1.6 | 8.0 | 0.00 | 0.18 | 0.00 | 73 | 995.9 |
| 20260507050032 | 15 | 68 | 1.6 | 8.0 | 0.00 | 0.18 | 0.00 | 72 | 995.9 |
| 20260507044513 | 15 | 360 | 4.8 | 12.9 | 0.00 | 0.18 | 0.18 | 71 | 996.1 |
| 20260507043013 | 15 | 359 | 3.2 | 19.3 | 0.00 | 0.18 | 0.18 | 70 | 996.0 |
| 20260507041522 | 15 | 51 | 3.2 | 11.3 | 0.00 | 0.18 | 0.18 | 70 | 996.2 |
| 20260507040013 | 15 | 342 | 3.2 | 12.9 | 0.00 | 0.18 | 0.18 | 70 | 996.2 |
| 20260507034512 | 15 | 40 | 3.2 | 14.5 | 0.00 | 0.18 | 0.18 | 70 | 996.2 |
| 20260507033011 | 15 | 32 | 4.8 | 11.3 | 0.00 | 0.18 | 0.18 | 70 | 996.3 |
| 20260507031510 | 15 | 9 | 3.2 | 17.7 | 0.00 | 0.18 | 0.18 | 70 | 996.2 |
| 20260507030017 | 16 | 103 | 4.8 | 12.9 | 0.00 | 0.18 | 0.18 | 70 | 996.0 |
| 20260507024512 | 16 | 333 | 6.4 | 14.5 | 0.00 | 0.18 | 0.18 | 69 | 995.7 |
| 20260507023005 | 16 | 329 | 4.8 | 19.3 | 0.00 | 0.18 | 0.18 | 69 | 995.3 |
| 20260507021502 | 16 | 62 | 4.8 | 14.5 | 0.00 | 0.18 | 0.18 | 70 | 994.9 |
| 20260507020002 | 16 | 56 | 6.4 | 20.9 | 0.00 | 0.18 | 0.18 | 70 | 994.8 |
| 20260507014602 | 16 | 23 | 4.8 | 16.1 | 0.00 | 0.18 | 0.18 | 70 | 994.5 |
| 20260507013100 | 16 | 6 | 4.8 | 16.1 | 0.00 | 0.18 | 0.18 | 70 | 994.0 |
| 20260507011600 | 16 | 360 | 6.4 | 12.9 | 0.00 | 0.18 | 0.18 | 70 | 993.6 |
| 20260507010111 | 16 | 359 | 4.8 | 16.1 | 0.00 | 0.18 | 0.18 | 70 | 993.5 |
| 20260507004559 | 17 | 1 | 3.2 | 12.9 | 0.00 | 0.18 | 0.18 | 69 | 993.4 |
| 20260507003058 | 17 | 360 | 3.2 | 12.9 | 0.00 | 0.18 | 0.18 | 70 | 993.3 |
| 20260507001608 | 17 | 23 | 4.8 | 14.5 | 0.00 | 0.18 | 0.18 | 70 | 993.2 |
| 20260507000057 | 17 | 316 | 6.4 | 12.9 | 0.00 | 0.18 | 0.18 | 69 | 992.9 |
| 20260506234559 | 17 | 359 | 3.2 | 9.7 | 0.00 | 0.18 | 0.18 | 69 | 992.7 |
| 20260506233059 | 17 | 2 | 6.4 | 14.5 | 0.00 | 0.18 | 0.18 | 69 | 992.6 |
| 20260506231609 | 18 | 48 | 1.6 | 17.7 | 0.00 | 0.18 | 0.18 | 68 | 992.3 |
| 20260506230110 | 18 | 359 | 0.0 | 9.7 | 0.00 | 0.18 | 0.18 | 69 | 992.3 |
| 20260506224553 | 18 | 16 | 3.2 | 11.3 | 0.00 | 0.18 | 0.18 | 69 | 992.2 |
| 20260506223051 | 17 | 39 | 4.8 | 12.9 | 0.00 | 0.18 | 0.18 | 69 | 992.2 |
| 20260506221609 | 17 | 1 | 6.4 | 12.9 | 0.00 | 0.18 | 0.18 | 69 | 992.0 |
| 20260506220104 | 17 | 37 | 4.8 | 9.7 | 0.00 | 0.18 | 0.18 | 69 | 992.2 |
| 20260506214548 | 17 | 1 | 1.6 | 8.0 | 0.00 | 0.18 | 0.18 | 70 | 992.3 |
| 20260506213100 | 17 | 288 | 0.0 | 12.9 | 0.00 | 0.18 | 0.18 | 71 | 992.1 |
| 20260506211540 | 16 | 359 | 3.2 | 9.7 | 0.00 | 0.18 | 0.18 | 70 | 992.4 |
| 20260506210046 | 16 | 5 | 4.8 | 12.9 | 0.00 | 0.18 | 0.18 | 69 | 992.5 |
| 20260506204537 | 16 | 46 | 4.8 | 14.5 | 0.00 | 0.18 | 0.18 | 70 | 992.5 |
| 20260506203034 | 16 | 23 | 3.2 | 9.7 | 0.00 | 0.18 | 0.18 | 69 | 992.7 |
| 20260506201538 | 16 | 27 | 1.6 | 14.5 | 0.00 | 0.18 | 0.18 | 71 | 992.6 |
| 20260506200031 | 16 | 15 | 3.2 | 8.0 | 0.00 | 0.18 | 0.18 | 72 | 993.1 |
| 20260506194530 | 15 | 11 | 3.2 | 11.3 | 0.00 | 0.18 | 0.18 | 72 | 993.3 |
| 20260506193029 | 15 | 12 | 3.2 | 12.9 | 0.00 | 0.18 | 0.18 | 73 | 993.7 |
| 20260506191530 | 15 | 19 | 3.2 | 9.7 | 0.00 | 0.18 | 0.18 | 73 | 993.4 |
| 20260506190031 | 15 | 360 | 0.0 | 11.3 | 0.00 | 0.18 | 0.18 | 74 | 993.5 |
| 20260506184531 | 14 | 40 | 3.2 | 12.9 | 0.00 | 0.18 | 0.18 | 75 | 993.4 |
| 20260506183034 | 14 | 11 | 6.4 | 16.1 | 0.00 | 0.18 | 0.18 | 75 | 992.0 |
| 20260506181527 | 14 | 33 | 4.8 | 14.5 | 0.00 | 0.18 | 0.18 | 76 | 992.1 |
| 20260506180031 | 13 | 96 | 4.8 | 20.9 | 0.00 | 0.18 | 0.18 | 78 | 992.8 |
| 20260506174528 | 13 | 23 | 3.2 | 14.5 | 0.00 | 0.18 | 0.18 | 80 | 992.7 |
| 20260506173025 | 12 | 80 | 3.2 | 19.3 | 0.00 | 0.18 | 0.18 | 81 | 992.9 |
| 20260506171534 | 12 | 344 | 6.4 | 20.9 | 0.00 | 0.18 | 0.18 | 83 | 992.6 |
| 20260506170018 | 12 | 20 | 4.8 | 14.5 | 0.00 | 0.18 | 0.18 | 84 | 993.1 |
| 20260506164522 | 12 | 346 | 4.8 | 17.7 | 0.00 | 0.18 | 0.18 | 84 | 993.3 |
| 20260506163015 | 12 | 42 | 3.2 | 11.3 | 0.00 | 0.18 | 0.18 | 85 | 993.5 |
| 20260506161513 | 12 | 22 | 0.0 | 11.3 | 0.13 | 0.18 | 0.18 | 85 | 993.7 |
| 20260506160016 | 12 | 210 | 0.0 | 12.9 | 0.18 | 0.18 | 0.18 | 86 | 992.4 |
| 20260506154512 | 12 | 10 | 4.8 | 14.5 | 0.18 | 0.18 | 0.18 | 86 | 992.3 |
| 20260506153008 | 12 | 18 | 4.8 | 12.9 | 0.15 | 0.15 | 0.15 | 86 | 993.1 |
| 20260506151505 | 12 | 311 | 0.0 | 6.4 | 0.05 | 0.05 | 0.05 | 82 | 995.0 |
| 20260506150002 | 12 | 55 | 3.2 | 9.7 | 0.00 | 0.00 | 0.00 | 79 | 994.1 |
| 20260506144604 | 12 | 359 | 1.6 | 16.1 | 0.00 | 0.00 | 0.00 | 79 | 993.5 |
| 20260506143058 | 12 | 53 | 3.2 | 12.9 | 0.00 | 0.00 | 0.00 | 79 | 992.1 |
| 20260506141554 | 12 | 301 | 1.6 | 8.0 | 0.00 | 0.00 | 0.00 | 79 | 993.4 |
| 20260506140052 | 12 | 359 | 4.8 | 14.5 | 0.00 | 0.00 | 0.00 | 79 | 993.0 |
| 20260506134548 | 12 | 14 | 3.2 | 11.3 | 0.00 | 0.00 | 0.00 | 79 | 992.6 |
| 20260506133046 | 12 | 1 | 3.2 | 17.7 | 0.00 | 0.00 | 0.00 | 79 | 992.2 |
| 20260506131551 | 12 | 6 | 6.4 | 17.7 | 0.00 | 0.00 | 0.00 | 78 | 992.0 |
| 20260506130041 | 12 | 1 | 1.6 | 8.0 | 0.00 | 0.00 | 0.00 | 79 | 991.8 |
| 20260506124539 | 12 | 295 | 1.6 | 11.3 | 0.00 | 0.00 | 0.00 | 78 | 991.7 |
| 20260506123035 | 12 | 19 | 3.2 | 11.3 | 0.00 | 0.00 | 0.00 | 76 | 991.7 |
| 20260506121534 | 12 | 344 | 3.2 | 9.7 | 0.00 | 0.00 | 0.00 | 75 | 991.5 |
| 20260506120030 | 12 | 336 | 1.6 | 11.3 | 0.00 | 0.00 | 0.00 | 73 | 991.2 |
| 20260506114535 | 13 | 16 | 0.0 | 14.5 | 0.00 | 0.00 | 0.00 | 73 | 991.1 |
| 20260506113023 | 13 | 359 | 4.8 | 16.1 | 0.00 | 0.00 | 0.00 | 73 | 990.8 |
| 20260506111519 | 13 | 359 | 3.2 | 9.7 | 0.00 | 0.00 | 0.00 | 72 | 990.4 |
| 20260506110021 | 13 | 314 | 1.6 | 12.9 | 0.00 | 0.00 | 0.00 | 72 | 990.2 |
| 20260506104514 | 13 | 321 | 4.8 | 9.7 | 0.00 | 0.00 | 0.00 | 72 | 990.0 |
| 20260506103011 | 13 | 84 | 1.6 | 9.7 | 0.00 | 0.00 | 0.00 | 72 | 989.8 |
| 20260506101511 | 13 | 44 | 3.2 | 14.5 | 0.00 | 0.00 | 0.00 | 71 | 989.5 |
| 20260506100016 | 14 | 56 | 1.6 | 9.7 | 0.00 | 0.00 | 0.00 | 71 | 989.2 |
| 20260506094505 | 14 | 39 | 3.2 | 9.7 | 0.00 | 0.00 | 0.00 | 72 | 989.0 |
| 20260506093002 | 14 | 23 | 1.6 | 9.7 | 0.00 | 0.00 | 0.00 | 73 | 988.9 |
| 20260506091502 | 14 | 26 | 3.2 | 11.3 | 0.00 | 0.00 | 0.00 | 73 | 988.8 |
| 20260506090059 | 14 | 26 | 0.0 | 9.7 | 0.00 | 0.00 | 0.00 | 73 | 988.7 |
| 20260506090001 | 14 | 1 | 0.0 | 9.7 | 0.00 | 0.00 | 0.00 | 73 | 988.7 |
| 20260506084604 | 14 | 7 | 4.8 | 11.3 | 0.00 | 0.00 | 0.00 | 73 | 988.7 |
| 20260506083056 | 15 | 21 | 1.6 | 6.4 | 0.00 | 0.00 | 0.00 | 73 | 988.5 |
| 20260506081554 | 15 | 6 | 4.8 | 16.1 | 0.00 | 0.00 | 0.00 | 74 | 988.4 |
| 20260506073047 | 15 | 5 | 4.8 | 16.1 | 0.00 | 0.00 | 0.00 | 73 | 987.7 |
| 20260506071554 | 15 | 65 | 6.4 | 12.9 | 0.00 | 0.00 | 0.00 | 74 | 987.9 |
| 20260506061537 | 16 | 15 | 4.8 | 12.9 | 0.00 | 0.00 | 0.00 | 74 | 987.9 |